Weather History for KLLQ - February, 2012

Change the Weather History Date:

Sunday, February 19, 2012

  Actual Average Record
Temperature  
Mean Temperature 48 °F -  
Max Temperature 57 °F 58 °F 80 °F (1986)
Min Temperature 36 °F 34 °F 12 °F (1978)
Degree Days  
Heating Degree Days 17    
Moisture  
Dew Point 38 °F    
Average Humidity 80    
Maximum Humidity 93    
Minimum Humidity 47    
Precipitation  
Precipitation 0.25 in - - ()
Sea Level Pressure  
Sea Level Pressure 30.01 in    
Wind  
Wind Speed 7 mph (North)    
Max Wind Speed 12 mph    
Max Gust Speed 22 mph    
Visibility 5 miles    
Events Fog , Rain    
Averages and records for this station are not official NWS values.
T = Trace of Precipitation, MM = Missing Value Source: NWS Daily Summary

Daily Weather History Graph

Daily Weather History Graph

Search for Another Location

Airport or City:

Trip Planner

Search our weather history database for the weather conditions in past years. The results will help you decide how hot, cold, wet, or windy it might be!

Date:

Astronomy

Feb. 19, 2012 Rise Set
Actual Time 6:47 AM CST 5:54 PM CST
Civil Twilight 6:22 AM CST 6:20 PM CST
Nautical Twilight 5:53 AM CST 6:49 PM CST
Astronomical Twilight 5:24 AM CST 7:18 PM CST
Moon 5:04 AM CST (2/19) 3:59 PM CST (2/19)
Length of Visible Light 11h 57m
Length of Day
11h 07m
Waning Crescent, 5% of the Moon is Illuminated
Feb 19
Waning Crescent
Feb 21
New
Feb 29
First Quarter
Mar 8
Full
Mar 14
Last Quarter

Hourly Weather History & Observations

Time (CST) Temp. Windchill Dew Point Humidity Pressure Visibility Wind Dir Wind Speed Gust Speed Precip Events Conditions
12:12 AM 44.6 °F 39.7 °F 41.0 °F 87% 29.88 in 3.0 mi North 9.2 mph 18.4 mph 0.06 in Rain Rain
12:19 AM 42.8 °F 37.0 °F 41.0 °F 93% 29.89 in 4.0 mi North 10.4 mph 18.4 mph 0.09 in Rain Heavy Rain
12:27 AM 42.8 °F 38.0 °F 41.0 °F 93% 29.89 in 4.0 mi North 8.1 mph 18.4 mph 0.11 in Rain Rain
12:53 AM 43.0 °F 36.8 °F 39.9 °F 89% 29.87 in 3.0 mi North 11.5 mph 21.9 mph 0.15 in Rain Heavy Rain
1:26 AM 42.8 °F 38.6 °F 39.2 °F 87% 29.88 in 1.0 mi Variable 6.9 mph - 0.04 in Rain Light Rain
1:28 AM 42.8 °F 38.6 °F 39.2 °F 87% 29.89 in 0.2 mi Variable 6.9 mph - 0.04 in Fog , Rain Light Rain
1:53 AM 42.1 °F 36.6 °F 39.0 °F 89% 29.89 in 0.2 mi North 9.2 mph 17.3 mph 0.04 in Fog , Rain Light Rain
2:16 AM 42.8 °F 38.0 °F 39.2 °F 87% 29.89 in 0.2 mi NNE 8.1 mph 18.4 mph 0.02 in Fog , Rain Light Rain
2:53 AM 42.1 °F 37.1 °F 37.9 °F 85% 29.89 in 0.2 mi NNE 8.1 mph - 0.02 in Fog Fog
3:40 AM 42.8 °F 38.0 °F 37.4 °F 81% 29.90 in 0.2 mi North 8.1 mph - 0.00 in Fog , Rain Light Rain
3:53 AM 42.1 °F 37.1 °F 37.9 °F 85% 29.90 in 0.2 mi North 8.1 mph 17.3 mph 0.00 in Fog , Rain Light Rain
4:11 AM 42.8 °F 38.6 °F 39.2 °F 87% 29.91 in 1.0 mi Variable 6.9 mph 18.4 mph 0.01 in Rain Light Rain
4:17 AM 42.8 °F 38.0 °F 39.2 °F 87% 29.91 in 6.0 mi North 8.1 mph - 0.01 in Rain Light Rain
4:53 AM 42.1 °F 37.1 °F 39.0 °F 89% 29.93 in - North 8.1 mph - 0.03 in Rain Light Rain
5:00 AM 42.8 °F 38.6 °F 39.2 °F 87% 29.93 in 0.2 mi Variable 6.9 mph - 0.00 in Fog , Rain Light Rain
5:12 AM 42.8 °F 37.5 °F 39.2 °F 87% 29.94 in 1.0 mi North 9.2 mph - 0.00 in Rain Light Rain
5:19 AM 42.8 °F 39.3 °F 39.2 °F 87% 29.95 in 7.0 mi Variable 5.8 mph - 0.00 in Rain Light Rain
5:26 AM 42.8 °F 38.6 °F 39.2 °F 87% 29.95 in 7.0 mi Variable 6.9 mph - 0.01 in Rain Light Rain
5:53 AM 41.0 °F 36.4 °F 39.0 °F 93% 29.96 in 10.0 mi Variable 6.9 mph - 0.01 in   Overcast
6:10 AM 42.8 °F 39.3 °F 39.2 °F 87% 29.97 in 10.0 mi Variable 5.8 mph - N/A   Overcast
6:47 AM 42.8 °F 38.6 °F 39.2 °F 87% 29.99 in 0.2 mi NNW 6.9 mph - N/A Fog Fog
6:48 AM 42.1 °F 37.7 °F 39.0 °F 89% 30.00 in 0.2 mi NNW 6.9 mph - N/A Fog Fog
7:53 AM 41.0 °F 38.0 °F 37.9 °F 89% 30.04 in 0.2 mi North 4.6 mph - N/A Fog Fog
8:14 AM 42.8 °F 38.6 °F 37.4 °F 81% 30.05 in 0.2 mi North 6.9 mph - N/A Fog Fog
8:53 AM 42.1 °F 37.7 °F 39.0 °F 89% 30.07 in 0.2 mi Variable 6.9 mph - N/A Fog Fog
9:53 AM 45.0 °F 41.8 °F 39.0 °F 80% 30.09 in 0.2 mi North 5.8 mph - N/A   Haze
10:17 AM 46.4 °F 44.3 °F 39.2 °F 76% 30.09 in 0.2 mi North 4.6 mph - N/A   Haze
10:42 AM 46.4 °F 43.5 °F 39.2 °F 76% 30.10 in 1.8 mi NW 5.8 mph - N/A   Haze
10:49 AM 48.2 °F - 39.2 °F 71% 30.10 in 10.0 mi Variable 3.5 mph - N/A   Mostly Cloudy
10:53 AM 48.9 °F - 39.9 °F 71% 30.10 in 10.0 mi NNW 6.9 mph - N/A   Mostly Cloudy
11:28 AM 50.0 °F - 39.2 °F 66% 30.10 in 10.0 mi NNW 5.8 mph - N/A   Scattered Clouds
11:53 AM 51.1 °F - 39.9 °F 66% 30.08 in 10.0 mi NNE 8.1 mph - 0.00 in   Partly Cloudy
12:53 PM 53.1 °F - 39.9 °F 61% 30.07 in 10.0 mi Variable 3.5 mph - 0.00 in Rain Light Rain
1:53 PM 55.9 °F - 39.9 °F 55% 30.06 in 10.0 mi NNW 5.8 mph - 0.00 in   Partly Cloudy
2:53 PM 57.0 °F - 37.0 °F 47% 30.05 in 10.0 mi Variable 6.9 mph - 0.00 in Rain Light Rain
3:53 PM 57.0 °F - 37.0 °F 47% 30.05 in 10.0 mi Variable 6.9 mph - 0.00 in   Clear
4:53 PM 54.0 °F - 36.0 °F 51% 30.06 in 10.0 mi NNE 5.8 mph - N/A   Clear
5:53 PM 50.0 °F - 36.0 °F 59% 30.06 in 10.0 mi NNE 3.5 mph - N/A   Clear
6:53 PM 46.9 °F - 37.0 °F 68% 30.09 in 10.0 mi Calm Calm - N/A   Clear
7:53 PM 45.0 °F - 37.0 °F 74% 30.11 in 10.0 mi Calm Calm - N/A   Clear
8:53 PM 39.0 °F - 36.0 °F 89% 30.11 in 0.2 mi Calm Calm - N/A Fog Fog
9:53 PM 41.0 °F - 35.1 °F 79% 30.15 in 0.2 mi Calm Calm - N/A   Haze
10:23 PM 39.2 °F 35.9 °F 35.6 °F 87% 30.14 in 1.8 mi ESE 4.6 mph - N/A   Haze
10:30 PM 39.2 °F 35.0 °F 35.6 °F 87% 30.14 in 10.0 mi ESE 5.8 mph - N/A   Clear
10:53 PM 43.0 °F 41.3 °F 34.0 °F 71% 30.15 in 10.0 mi SSE 3.5 mph - N/A   Clear
11:53 PM 36.0 °F - 33.1 °F 89% 30.16 in 10.0 mi Calm Calm - N/A   Clear